Data for 09/05/2016

Time Sea-Level Adjusted Pressure Absolute Pressure Temperature Relative Humidity Dew Point   
(mb) (inHg) (mb) (inHg) (C) (F) (%) (C) (F)
00:05 1015 29.97 844 24.92 6.5 43.6 90 5 41
00:10 1015 29.97 844 24.92 6.5 43.6 90 5 41
00:15 1015 29.97 844 24.92 6.5 43.6 90 5 40.9
00:20 1015 29.97 844 24.92 6.5 43.6 90 5 41
00:25 1015 29.97 844 24.92 6.5 43.6 91 5 41.1
00:30 1014 29.94 844 24.92 6.5 43.6 90 5 40.9
00:35 1014 29.94 844 24.92 6.4 43.4 89 4.7 40.5
00:40 1014 29.94 844 24.92 6.4 43.4 90 4.8 40.6
00:45 1014 29.94 844 24.92 6.4 43.5 90 4.9 40.8
00:50 1014 29.94 844 24.92 6.4 43.5 90 4.8 40.7
00:55 1014 29.94 844 24.92 6.4 43.6 90 4.9 40.8
01:00 1015 29.97 844 24.92 6.4 43.6 89 4.8 40.7
01:05 1015 29.97 844 24.92 6.4 43.6 90 4.9 40.8
01:10 1014 29.94 844 24.92 6.5 43.6 90 4.9 40.8
01:15 1014 29.94 844 24.92 6.5 43.6 89 4.8 40.7
01:20 1014 29.94 844 24.92 6.5 43.6 89 4.8 40.6
01:25 1014 29.94 844 24.92 6.4 43.5 89 4.7 40.4
01:30 1014 29.94 844 24.92 6.4 43.6 89 4.7 40.4
01:35 1014 29.94 844 24.92 6.4 43.6 89 4.7 40.5
01:40 1014 29.94 844 24.92 6.4 43.6 89 4.7 40.5
01:45 1014 29.94 843 24.89 6.4 43.6 89 4.7 40.5
01:50 1014 29.94 843 24.89 6.4 43.5 88 4.5 40.1
01:55 1014 29.94 844 24.92 6.2 43.2 88 4.4 39.9
02:00 1014 29.94 844 24.92 6.1 43 89 4.4 39.9
02:05 1014 29.94 844 24.92 6.1 43 89 4.3 39.8
02:10 1014 29.94 843 24.89 6.1 43 89 4.4 39.9
02:15 1014 29.94 843 24.89 6.2 43.1 88 4.4 39.9
02:20 1014 29.94 843 24.89 6.2 43.1 88 4.4 39.9
02:25 1014 29.94 843 24.89 6.3 43.3 89 4.5 40.1
02:30 1014 29.94 843 24.89 6.2 43.2 89 4.6 40.2
02:35 1014 29.94 843 24.89 6.2 43.1 89 4.6 40.2
02:40 1014 29.94 843 24.89 6.1 42.9 89 4.5 40
02:45 1014 29.94 843 24.89 6.1 43 90 4.5 40.1
02:50 1014 29.94 843 24.89 6.1 43 90 4.6 40.2
02:55 1014 29.94 843 24.89 6.2 43.1 90 4.6 40.3
03:00 1014 29.94 843 24.89 6.2 43.2 90 4.6 40.3
03:05 1014 29.94 843 24.89 6.2 43.2 90 4.7 40.5
03:10 1014 29.94 843 24.89 6.2 43.2 90 4.7 40.4
03:15 1014 29.94 843 24.89 6.2 43.1 90 4.7 40.5
03:20 1014 29.94 843 24.89 6.3 43.3 90 4.8 40.7
03:25 1014 29.94 843 24.89 6.4 43.5 89 4.8 40.6
03:30 1014 29.94 843 24.89 6.5 43.7 88 4.7 40.5
03:35 1014 29.94 843 24.89 6.6 43.9 88 4.8 40.6
03:40 1014 29.94 843 24.89 6.6 44 88 4.7 40.5
03:45 1014 29.94 843 24.89 6.7 44 86 4.5 40.2
03:50 1014 29.94 843 24.89 6.7 44.1 86 4.6 40.3
03:55 1014 29.94 843 24.89 6.8 44.2 86 4.6 40.3
04:00 1014 29.94 843 24.89 6.8 44.2 86 4.5 40.2
04:05 1014 29.94 843 24.89 6.8 44.3 86 4.6 40.2
04:10 1014 29.94 843 24.89 6.7 44.1 88 4.9 40.9
04:15 1014 29.94 843 24.89 6.6 43.8 89 5 40.9
04:20 1013 29.91 843 24.89 6.4 43.5 90 4.9 40.9
04:25 1013 29.91 843 24.89 6.1 43 91 4.8 40.6
04:30 1014 29.94 843 24.89 6 42.8 91 4.7 40.5
04:35 1014 29.94 843 24.89 5.9 42.6 92 4.6 40.4
04:40 1014 29.94 843 24.89 5.9 42.6 92 4.6 40.3
04:45 1014 29.94 843 24.89 5.9 42.6 91 4.5 40.2
04:50 1014 29.94 843 24.89 6.1 42.9 91 4.7 40.5
04:55 1014 29.94 843 24.89 6.2 43.1 91 4.8 40.7
05:00 1014 29.94 843 24.89 6.2 43.2 91 4.9 40.8
05:05 1014 29.94 843 24.89 6.3 43.3 91 4.9 40.8
05:10 1014 29.94 843 24.89 6.2 43.2 91 4.9 40.8
05:15 1014 29.94 843 24.89 6.2 43.2 91 4.9 40.8
05:20 1014 29.94 843 24.89 6.3 43.3 92 5 41.1
05:25 1014 29.94 843 24.89 6.2 43.1 92 5 40.9
05:30 1014 29.94 843 24.89 6.1 43 92 4.9 40.8
05:35 1014 29.94 843 24.89 6.1 42.9 92 4.9 40.8
05:40 1014 29.94 844 24.92 6.1 43 92 4.9 40.8
05:45 1014 29.94 844 24.92 6.1 42.9 92 4.9 40.8
05:50 1014 29.94 844 24.92 6 42.8 92 4.8 40.6
05:55 1014 29.94 844 24.92 6 42.8 92 4.8 40.7
06:00 1014 29.94 843 24.89 6 42.7 92 4.8 40.7
06:05 1014 29.94 843 24.89 5.9 42.6 93 4.8 40.6
06:10 1014 29.94 843 24.89 5.8 42.5 93 4.8 40.6
06:15 1014 29.94 843 24.89 5.8 42.4 93 4.8 40.6
06:20 1014 29.94 843 24.89 5.8 42.4 93 4.8 40.6
06:25 1014 29.94 843 24.89 5.7 42.3 93 4.7 40.5
06:30 1014 29.94 843 24.89 5.7 42.3 93 4.7 40.4
06:35 1014 29.94 843 24.89 5.7 42.2 93 4.6 40.3
06:40 1014 29.94 843 24.89 5.6 42.1 93 4.6 40.2
06:45 1014 29.94 843 24.89 5.6 42.1 93 4.5 40.1
06:50 1014 29.94 843 24.89 5.6 42.1 93 4.5 40.1
06:55 1014 29.94 844 24.92 5.7 42.2 92 4.6 40.2
07:00 1014 29.94 844 24.92 5.7 42.3 92 4.5 40.1
07:05 1014 29.94 844 24.92 5.7 42.3 92 4.6 40.2
07:10 1015 29.97 844 24.92 5.8 42.4 92 4.5 40.1
07:15 1014 29.94 844 24.92 5.8 42.4 92 4.5 40.2
07:20 1014 29.94 844 24.92 5.8 42.5 91 4.5 40.1
07:25 1015 29.97 844 24.92 5.9 42.6 91 4.5 40.2
07:30 1015 29.97 844 24.92 5.9 42.7 91 4.6 40.2
07:35 1015 29.97 844 24.92 6.1 42.9 90 4.6 40.3
07:40 1015 29.97 844 24.92 6 42.8 89 4.3 39.7
07:45 1015 29.97 844 24.92 5.9 42.6 90 4.3 39.7
07:50 1015 29.97 844 24.92 5.7 42.3 91 4.3 39.7
07:55 1015 29.97 844 24.92 5.6 42.1 91 4.3 39.7
08:00 1015 29.97 844 24.92 5.7 42.2 91 4.4 39.9
08:05 1015 29.97 844 24.92 5.8 42.4 91 4.5 40.1
08:10 1015 29.97 844 24.92 5.8 42.5 91 4.5 40.1
08:15 1015 29.97 844 24.92 5.9 42.6 91 4.6 40.2
08:20 1015 29.97 844 24.92 6 42.7 91 4.6 40.3
08:25 1015 29.97 844 24.92 6 42.8 90 4.6 40.2
08:30 1015 29.97 844 24.92 6 42.9 90 4.5 40.2
08:35 1015 29.97 844 24.92 6 42.8 90 4.4 40
08:40 1015 29.97 845 24.95 6 42.7 90 4.5 40.1
08:45 1015 29.97 845 24.95 6.1 43 91 4.7 40.5
08:50 1015 29.97 845 24.95 6.3 43.3 90 4.7 40.5
08:55 1015 29.97 845 24.95 6.3 43.4 90 4.8 40.6
09:00 1015 29.97 845 24.95 6.4 43.5 90 4.9 40.9
09:05 1015 29.97 845 24.95 6.4 43.6 90 4.9 40.7
09:10 1016 30 845 24.95 6.3 43.4 91 4.9 40.8
09:15 1016 30 845 24.95 6.5 43.7 91 5.1 41.2
09:20 1016 30 845 24.95 6.6 43.8 90 5.1 41.1
09:25 1016 30 845 24.95 6.6 43.8 90 5.1 41.2
09:30 1016 30 845 24.95 6.4 43.6 91 5.1 41.1
09:35 1016 30 845 24.95 6.5 43.7 90 5 41
09:40 1016 30 845 24.95 6.5 43.6 90 5 41
09:45 1016 30 845 24.95 6.5 43.7 90 5 41.1
09:50 1016 30 845 24.95 6.6 43.8 90 5.1 41.1
09:55 1016 30 845 24.95 6.7 44 89 5.1 41.1
10:00 1016 30 845 24.95 6.8 44.3 89 5.1 41.2
10:05 1016 30 845 24.95 6.9 44.3 88 5 41.1
10:10 1016 30 845 24.95 7 44.7 88 5.2 41.4
10:15 1016 30 845 24.95 7.2 44.9 88 5.3 41.5
10:20 1016 30 845 24.95 7.3 45.2 87 5.3 41.5
10:25 1016 30 845 24.95 7.3 45.1 86 5.1 41.2
10:30 1016 30 845 24.95 7.2 44.9 88 5.3 41.5
10:35 1016 30 845 24.95 7.4 45.2 86 5.2 41.4
10:40 1016 30 845 24.95 7.4 45.3 87 5.4 41.7
10:45 1016 30 845 24.95 7.4 45.3 86 5.2 41.4
10:50 1016 30 846 24.98 7.3 45.2 86 5.2 41.3
10:55 1016 30 846 24.98 7.3 45.2 86 5.2 41.3
11:00 1016 30 846 24.98 7.3 45.1 86 5.1 41.1
11:05 1017 30.03 846 24.98 7.3 45.2 85 5 41.1
11:10 1017 30.03 846 24.98 7.3 45.1 87 5.3 41.5
11:15 1017 30.03 846 24.98 7.2 44.9 88 5.4 41.7
11:20 1017 30.03 846 24.98 7.1 44.7 88 5.2 41.3
11:25 1017 30.03 846 24.98 6.8 44.2 88 4.9 40.8
11:30 1017 30.03 846 24.98 6.7 44.1 88 4.9 40.7
11:35 1017 30.03 846 24.98 6.7 44.1 89 5 41
11:40 1017 30.03 846 24.98 6.8 44.2 88 4.9 40.9
11:45 1017 30.03 846 24.98 6.9 44.4 88 5.1 41.1
11:50 1017 30.03 846 24.98 7 44.5 88 5.1 41.3
11:55 1017 30.03 846 24.98 7.1 44.7 87 5.1 41.3
12:00 1017 30.03 846 24.98 7.1 44.7 87 5 41
12:05 1017 30.03 846 24.98 7.1 44.7 86 4.8 40.7
12:10 1017 30.03 846 24.98 7.1 44.7 86 4.9 40.9
12:15 1017 30.03 846 24.98 7.2 44.9 85 4.8 40.6
12:20 1017 30.03 846 24.98 7.3 45.1 85 4.9 40.9
12:25 1017 30.03 846 24.98 7.4 45.3 84 4.9 40.9
12:30 1017 30.03 846 24.98 7.4 45.3 83 4.7 40.4
12:35 1017 30.03 846 24.98 7.4 45.4 82 4.5 40.1
12:40 1017 30.03 846 24.98 7.4 45.4 83 4.8 40.7
12:45 1017 30.03 846 24.98 7.5 45.5 84 4.9 40.8
12:50 1017 30.03 846 24.98 7.5 45.6 84 5 41
12:55 1017 30.03 847 25.01 7.6 45.7 83 4.9 40.8
13:00 1017 30.03 847 25.01 7.6 45.7 83 4.9 40.7
13:05 1017 30.03 847 25.01 7.7 45.8 83 5 41
13:10 1017 30.03 847 25.01 7.7 45.8 84 5.2 41.4
13:15 1017 30.03 847 25.01 7.8 46 84 5.2 41.3
13:20 1018 30.06 847 25.01 7.8 46 85 5.4 41.7
13:25 1018 30.06 847 25.01 7.9 46.2 85 5.5 41.9
13:30 1018 30.06 847 25.01 8 46.5 78 4.5 40
13:35 1018 30.06 847 25.01 8.1 46.5 79 4.6 40.3
13:40 1018 30.06 847 25.01 8.1 46.5 75 3.9 39.1
13:45 1018 30.06 847 25.01 8 46.3 74 3.6 38.5
13:50 1018 30.06 847 25.01 8 46.4 74 3.6 38.5
13:55 1018 30.06 847 25.01 8 46.4 74 3.7 38.6
14:00 1018 30.06 847 25.01 8.1 46.5 75 3.9 39.1
14:05 1018 30.06 847 25.01 8.2 46.8 72 3.5 38.4
14:10 1018 30.06 847 25.01 8.2 46.7 70 3.2 37.7
14:15 1018 30.06 847 25.01 8 46.4 70 3 37.3
14:20 1018 30.06 847 25.01 7.8 46 73 3.3 38
14:25 1018 30.06 847 25.01 7.7 45.9 72 3 37.4
14:30 1018 30.06 847 25.01 7.7 45.8 73 3.1 37.6
14:35 1018 30.06 847 25.01 7.8 46 71 2.9 37.2
14:40 1018 30.06 848 25.04 7.8 46 72 3.2 37.7
14:45 1018 30.06 848 25.04 7.9 46.2 70 2.8 37
14:50 1018 30.06 848 25.04 7.9 46.2 71 3 37.4
14:55 1018 30.06 848 25.04 7.9 46.3 72 3.2 37.7
15:00 1018 30.06 848 25.04 8 46.4 72 3.3 38
15:05 1018 30.06 848 25.04 8.1 46.6 72 3.4 38.1
15:10 1018 30.06 848 25.04 8.1 46.6 72 3.4 38.1
15:15 1018 30.06 848 25.04 8.2 46.7 72 3.5 38.2
15:20 1018 30.06 848 25.04 8.2 46.8 71 3.3 38
15:25 1019 30.09 848 25.04 8.2 46.8 71 3.3 37.9
15:30 1019 30.09 848 25.04 8.2 46.8 71 3.3 38
15:35 1019 30.09 848 25.04 8.4 47 70 3.3 37.9
15:40 1019 30.09 848 25.04 8.4 47.1 71 3.5 38.3
15:45 1019 30.09 848 25.04 8.4 47.2 72 3.7 38.7
15:50 1019 30.09 848 25.04 8.5 47.3 76 4.6 40.3
15:55 1019 30.09 848 25.04 8.3 46.9 76 4.2 39.6
16:00 1019 30.09 848 25.04 8.2 46.7 78 4.5 40.1
16:05 1019 30.09 848 25.04 8.2 46.7 78 4.7 40.4
16:10 1019 30.09 848 25.04 8.3 46.9 77 4.5 40.1
16:15 1019 30.09 848 25.04 8.1 46.6 80 5 40.9
16:20 1019 30.09 848 25.04 8.2 46.7 81 5 41.1
16:25 1019 30.09 848 25.04 8.4 47.1 81 5.4 41.7
16:30 1019 30.09 848 25.04 8.6 47.5 80 5.3 41.5
16:35 1019 30.09 848 25.04 8.9 47.9 81 5.8 42.4
16:40 1019 30.09 848 25.04 9.1 48.3 79 5.7 42.2
16:45 1019 30.09 848 25.04 9.5 49 73 5 40.9
16:50 1019 30.09 848 25.04 9.5 49.2 74 5.2 41.3
16:55 1019 30.09 848 25.04 9.8 49.6 73 5.2 41.4
17:00 1019 30.09 848 25.04 9.7 49.4 74 5.3 41.5
17:05 1019 30.09 848 25.04 9.3 48.7 75 5.1 41.3
17:10 1019 30.09 848 25.04 9.4 49 75 5.2 41.3
17:15 1019 30.09 848 25.04 9.5 49 74 5 41.1
17:20 1019 30.09 848 25.04 9.8 49.7 71 4.8 40.6
17:25 1019 30.09 848 25.04 10.2 50.4 70 5.1 41.2
17:30 1019 30.09 849 25.07 9.8 49.6 71 4.9 40.8
17:35 1019 30.09 849 25.07 9.9 49.8 68 4.4 39.8
17:40 1019 30.09 849 25.07 9.8 49.6 70 4.5 40.1
17:45 1019 30.09 849 25.07 9.9 49.8 69 4.6 40.2
17:50 1019 30.09 849 25.07 9.6 49.3 69 4.2 39.6
17:55 1019 30.09 849 25.07 9.5 49 72 4.8 40.6
18:00 1019 30.09 849 25.07 10 50 70 4.7 40.5
18:05 1019 30.09 849 25.07 10 50 70 4.7 40.5
18:10 1019 30.09 849 25.07 10.2 50.3 70 4.9 40.9
18:15 1019 30.09 849 25.07 10.4 50.6 68 4.7 40.5
18:20 1019 30.09 849 25.07 10 49.9 68 4.4 39.8
18:25 1019 30.09 849 25.07 10 49.9 69 4.6 40.3
18:30 1019 30.09 849 25.07 9.9 49.8 70 4.6 40.3
18:35 1019 30.09 849 25.07 9.8 49.7 70 4.7 40.4
18:40 1019 30.09 849 25.07 9.7 49.5 69 4.3 39.7
18:45 1019 30.09 849 25.07 9.7 49.5 68 4.1 39.5
18:50 1019 30.09 849 25.07 9.7 49.5 69 4.2 39.6
18:55 1019 30.09 849 25.07 9.6 49.3 69 4.3 39.7
19:00 1019 30.09 849 25.07 9.6 49.2 68 4 39.2
19:05 1019 30.09 849 25.07 9.5 49.2 70 4.4 39.9
19:10 1019 30.09 849 25.07 9.4 49 68 3.9 39
19:15 1019 30.09 849 25.07 9.4 48.9 72 4.6 40.2
19:20 1019 30.09 849 25.07 9.4 48.9 74 5.1 41.2
19:25 1019 30.09 849 25.07 9.3 48.7 77 5.4 41.6
19:30 1019 30.09 849 25.07 9.1 48.4 74 4.8 40.6
19:35 1019 30.09 849 25.07 9 48.2 75 4.9 40.8
19:40 1019 30.09 849 25.07 8.9 48 79 5.5 41.8
19:45 1019 30.09 849 25.07 8.7 47.7 78 5.2 41.3
19:50 1019 30.09 848 25.04 8.7 47.6 78 5 41
19:55 1019 30.09 849 25.07 8.5 47.3 78 4.9 40.9
20:00 1019 30.09 849 25.07 8.3 47 78 4.8 40.7
20:05 1020 30.12 849 25.07 8.2 46.8 79 4.9 40.8
20:10 1020 30.12 849 25.07 8.1 46.5 79 4.7 40.4
20:15 1020 30.12 849 25.07 7.9 46.3 78 4.3 39.8
20:20 1020 30.12 849 25.07 7.8 46.1 80 4.6 40.2
20:25 1020 30.12 849 25.07 7.7 45.8 81 4.6 40.3
20:30 1020 30.12 849 25.07 7.5 45.6 83 4.8 40.6
20:35 1020 30.12 849 25.07 7.3 45.1 84 4.8 40.6
20:40 1020 30.12 849 25.07 7.1 44.7 84 4.6 40.3
20:45 1020 30.12 849 25.07 7.1 44.8 85 4.7 40.4
20:50 1020 30.12 849 25.07 6.9 44.5 86 4.7 40.5
20:55 1020 30.12 849 25.07 6.6 43.9 86 4.5 40.1
21:00 1020 30.12 849 25.07 6.4 43.6 87 4.4 39.8
21:05 1020 30.12 849 25.07 6.3 43.3 86 4.2 39.5
21:10 1020 30.12 849 25.07 6.4 43.5 86 4.2 39.6
21:15 1020 30.12 849 25.07 6.4 43.4 86 4.1 39.5
21:20 1020 30.12 849 25.07 6.1 43 86 4 39.2
21:25 1020 30.12 849 25.07 6.2 43.1 86 4.1 39.3
21:30 1020 30.12 849 25.07 6 42.9 86 3.9 39
21:35 1020 30.12 849 25.07 5.9 42.6 87 3.8 38.9
21:40 1020 30.12 849 25.07 5.6 42.2 87 3.7 38.7
21:45 1020 30.12 849 25.07 5.3 41.6 88 3.5 38.4
21:50 1020 30.12 849 25.07 5.1 41.1 89 3.4 38.1
21:55 1020 30.12 849 25.07 5.1 41.2 87 3 37.5
22:00 1020 30.12 849 25.07 5 41 88 3.2 37.7
22:05 1020 30.12 849 25.07 5.1 41.1 87 3.2 37.7
22:10 1020 30.12 849 25.07 5.2 41.4 86 3.1 37.6
22:15 1020 30.12 849 25.07 5.2 41.3 87 3.1 37.6
22:20 1020 30.12 849 25.07 5.1 41.1 87 3 37.4
22:25 1020 30.12 849 25.07 5.2 41.3 86 3 37.3
22:30 1020 30.12 849 25.07 5.1 41.2 86 3 37.4
22:35 1020 30.12 849 25.07 5 41.1 86 2.9 37.2
22:40 1020 30.12 849 25.07 4.9 40.7 87 2.8 37.1
22:45 1020 30.12 849 25.07 4.7 40.5 86 2.7 36.8
22:50 1020 30.12 849 25.07 4.8 40.6 86 2.6 36.7
22:55 1020 30.12 849 25.07 4.9 40.9 84 2.5 36.5
23:00 1020 30.12 849 25.07 4.8 40.7 85 2.5 36.6
23:05 1020 30.12 849 25.07 4.6 40.4 86 2.4 36.4
23:10 1020 30.12 849 25.07 4.6 40.4 86 2.5 36.4
23:15 1020 30.12 849 25.07 4.7 40.5 86 2.5 36.6
23:20 1020 30.12 849 25.07 4.6 40.3 86 2.5 36.5
23:25 1020 30.12 849 25.07 4.6 40.3 85 2.4 36.3
23:30 1020 30.12 849 25.07 4.9 40.8 84 2.3 36.2
23:35 1020 30.12 849 25.07 5 41 84 2.5 36.5
23:40 1020 30.12 849 25.07 5.2 41.4 82 2.4 36.4
23:45 1020 30.12 849 25.07 5.3 41.5 83 2.6 36.7
23:50 1020 30.12 849 25.07 5.2 41.3 83 2.6 36.6
23:55 1020 30.12 849 25.07 5.1 41.1 83 2.4 36.4
24:00 1020 30.12 849 25.07 5 41 83 2.4 36.3